Погода в Елецком

Россия / Республика Коми     67°02′41″N   64°12′53″E
темп.,
°C
ветер,
м/с
пор.,
м/с
влажн.,
%
обл.,
%
осадки,
мм/ч
давл.,
гПа
погр.,
м
23 октября, сб
сб2300:00−4вюв6128570 0.0 984267
03:00−4вюв61284100 0.0 982298
06:00−3вюв51189100 0.3 981389
09:00−2вюв4888100 0.6 981335
12:00−2вюв3694100 0.3 981295
15:00−2юв3498100 1.8 981202
18:00−1зюз6998100 1.9 983427
21:00−3зсз61097100 3.6 986499
24 октября, вс
вс2400:00−4з61295100 0.9 988421
03:00−5з6129690 1.4 990380
06:00−4з7149583 0.2 992473
09:00−4з7149386 0.4 995514
12:00−4з7129279 0.1 998424
15:00−6з6119455 0.3 1001245
18:00−7зюз489664 0.1 1002172
21:00−7зюз589588 0.1 1003204
25 октября, пн
пн2500:00−7зюз479696 0.1 1004206
03:00−7зюз3697100 0.3 1004192
06:00−8зюз259797 0.2 100493
09:00−7зюз2697100 0.4 1005174
12:00−6юз269699 0.3 1006252
15:00−6юз379698 0.9 1005198
18:00−7юз479695 0.4 1006220
21:00−9юз379697 0.6 1006120
26 октября, вт
вт2600:00−7зюз61095100 0.1 1005339
03:00−8зюз61095100 0.7 1005383
06:00−8юз6995100 0.6 1004303
09:00−8зюз71294100 1.1 1003420
12:00−5з71295100 1.2 1003586
15:00−6зсз61192100 1.6 1003506
18:00−7сз6119389 0.3 1005408
21:00−11з349875 0.3 100845
27 октября, ср
ср2700:00−10зюз369682 0.2 1009157
03:00−12юз459888 0.4 1011116
06:00−11юз4796100 0.1 1012175
09:00−9юз4894100 0.3 1013288
12:00−9ю2295100 0.1 101263
15:00−10вюв3392100 0.1 101137
18:00−9вюв4687100 0.0 1009105
21:00−7вюв4788100 0.0 1008186